Overview Statistics Trail Chart Weather Telemetry Raw packets
 

This is the latest recevied weather packets stored in our database for station/object EA4CZ-7. If no packets are shown the sender has not sent any weather packets the latest 10 day(s).

<< 1 2 3 4 >>
Time Temp. Humidity Pressure Rain* Wind** Luminosity Snow
1788288651 35° C 23% 938.6 hPa - - - -
1788288351 35° C 23% 938.5 hPa - - - -
1788288051 35.56° C 23% 938.6 hPa - - - -
1788287751 35.56° C 23% 938.5 hPa - - - -
1788287451 36.11° C 23% 938.5 hPa - - - -
1788287150 36.11° C 23% 938.5 hPa - - - -
1788286851 36.11° C 23% 938.5 hPa - - - -
1788286551 36.67° C 22% 938.5 hPa - - - -
1788286250 37.22° C 22% 938.5 hPa - - - -
1788285950 37.78° C 22% 938.5 hPa - - - -
1788285650 37.78° C 22% 938.6 hPa - - - -
1788285049 38.33° C 24% 936.4 hPa - - - -
1788283203 37.22° C 31% 940.5 hPa - - - -
1788282903 37.22° C 30% 940.7 hPa - - - -
1788282602 37.22° C 30% 939.2 hPa - - - -
1788274735 36.11° C 34% 936.9 hPa - - - -
1788273799 35.56° C 35% 940.8 hPa - - - -
1788273499 35.56° C 36% 940.9 hPa - - - -
1788273199 35.56° C 35% 940.9 hPa - - - -
1788272598 35.56° C 35% 941.1 hPa - - - -
1788272298 36.11° C 35% 940.6 hPa - - - -
1788268353 35° C 36% 1002.3 hPa - - - -
1788267743 33.89° C 38% 1008.4 hPa - - - -
1788267443 33.89° C 38% 1008.5 hPa - - - -
1788267143 33.89° C 38% 1008.7 hPa - - - -

* Rain since midnight (hover to see other rain measurements)
** Current wind speed in m/s (hover to see current wind gust speed)